Regional Weather Roundup
Issued by NWS

Home | Current Version | Previous Version | Text Only | Print | Product List | Glossary On
Versions: 1 2 3 4 5 6 7 8 9 10 11 12 13 14 15 16 17 18 19 20 21 22 23 24 25 26 27 28 29 30 31 32 33 34 35 36 37 38 39 40 41 42 43 44 45 46 47 48 49 50
000
ASUS43 KMKX 212110
RWRWI

WISCONSIN REGIONAL WEATHER ROUNDUP
NATIONAL WEATHER SERVICE MILWAUKEE/SULLIVAN WI
400 PM CDT SAT APR 21 2018

NOTE: "FAIR" INDICATES FEW OR NO CLOUDS BELOW 12,000 FEET WITH NO
SIGNIFICANT WEATHER AND/OR OBSTRUCTIONS TO VISIBILITY.

WIZ001-002-006>008-014>016-023>028-212200-
NORTHWEST WISCONSIN

CITY           SKY/WX    TMP DP  RH WIND       PRES   REMARKS
SUPERIOR ARPT  FAIR      59  19  21 NE7       30.33F
ASHLAND        FAIR      58   8  13 W7        30.34F
HAYWARD        FAIR      55  17  22 CALM      30.34F
SIREN          FAIR      58  18  21 SW6       30.35F
CUMBERLAND     FAIR      50  14  23 CALM      30.37S
RICE LAKE      FAIR      54  19  25 CALM      30.37F
CHETEK         FAIR      56  23  27 CALM      30.36S
LADYSMITH      FAIR      57  18  21 CALM      30.36F
EAU CLAIRE     FAIR      59  29  31 N8        30.34F
MENOMONIE      FAIR      60  29  30 S7        30.35F
NEW RICHMOND   FAIR      57  18  21 CALM      30.35F
OSCEOLA        FAIR      56  22  27 CALM      30.38F
$$

WIZ003>005-009-010-017-018-212200-
NORTH CENTRAL WISCONSIN

CITY           SKY/WX    TMP DP  RH WIND       PRES   REMARKS
MANITOWISH WTR FAIR      55  10  16 S7        30.33F
ARBOR VITAE    FAIR      57  14  18 S5        30.33F
WOODRUFF       FAIR      57  14  18 S5        30.33F
RHINELANDER    FAIR      55  16  21 VRB6      30.34F
EAGLE RIVER    FAIR      56   4  12 CALM      30.32F
LAND O LAKES   FAIR      58   6  12 W5        30.33F
PHILLIPS       FAIR      55  14  20 W6        30.34F
TOMAHAWK       FAIR      55  15  20 CALM      30.35F
MEDFORD        FAIR      53  26  35 SE3       30.35F
MERRILL          N/A     56  27  33 SW7       30.36F
$$

WIZ029-030-035-036-043>047-212200-
CENTRAL WISCONSIN

CITY           SKY/WX    TMP DP  RH WIND       PRES   REMARKS
WAUSAU         FAIR      55  27  34 W8        30.34F
MOSINEE        MOSUNNY   55  25  30 W6        30.37F
MARSHFIELD     FAIR      55  27  34 NW3       30.34F
STEVENS POINT  FAIR      54  22  29 CALM      30.36F
WAUPACA        FAIR      58  20  23 S3        30.37F
WAUTOMA        FAIR      57  27  31 SW9       30.37F
WISC RAPIDS    FAIR      55  27  34 S7        30.36F
CAMP DOUGLAS   FAIR      55  28  35 SW3       30.37F
$$

WIZ011>013-019>022-031-037>040-048>050-212200-
NORTHEAST WISCONSIN

CITY           SKY/WX    TMP DP  RH WIND       PRES   REMARKS
ANTIGO         FAIR      53  24  31 CALM      30.36S
SHAWANO        FAIR      60  20  21 S5        30.36F
OCONTO         FAIR      56  20  24 SW12      30.37S
STURGEON BAY   FAIR      54  19  25 S10       30.38F
GREEN BAY      FAIR      51  22  31 S9        30.39F
MANITOWOC      FAIR      51  23  33 S9        30.40F
APPLETON       PTSUNNY   54  18  24 S6        30.37
CLINTONVILLE   FAIR      55  18  23 S7        30.36F
OSHKOSH        FAIR      51  31  46 S6        30.38F
$$

WIZ032>034-041-042-053>061-212200-
SOUTHWEST WISCONSIN

CITY           SKY/WX    TMP DP  RH WIND       PRES   REMARKS
LA CROSSE      PTSUNNY   59  30  33 CALM      30.35F
SPARTA         CLOUDY    56  31  38 SE5       30.37F
VIROQUA        CLOUDY    53  35  51 SW3       30.36F
BOSCOBEL       PTSUNNY   57  36  45 CALM      30.36F
PRAIRIE DU CHI FAIR      56  32  40 CALM      30.35F
PLATTEVILLE    PTSUNNY   55  33  44 E7        30.35F
$$

WIZ056-057-062-063-064-067-068-212200-
SOUTH CENTRAL WISCONSIN

CITY           SKY/WX    TMP DP  RH WIND       PRES   REMARKS
REEDSBURG      FAIR      54  33  46 CALM      30.37F
BARABOO/DELLS  PTSUNNY   53  29  39 CALM      30.38F
LONE ROCK      FAIR      57  33  40 E8        30.36F
MINERAL POINT  FAIR      55  32  41 E3        30.36F
MADISON        PTSUNNY   54  30  40 E6        30.37F
MIDDLETON      FAIR      56  32  39 E6        30.37F
WATERTOWN      CLOUDY    51  30  44 CALM      30.39F
MONROE         FAIR      54  32  43 E8        30.35F
JANESVILLE     CLOUDY    55  32  41 E6        30.38F
$$

WIZ051-052-058>065-066-070>072-212200-
SOUTHEAST WISCONSIN

CITY           SKY/WX    TMP DP  RH WIND       PRES   REMARKS
MILWAUKEE      PTSUNNY   52  20  28 SE6       30.41F
WAUKESHA       CLOUDY    50  25  37 W7        30.41F
MILWAUKEE/TIMM PTSUNNY   55  12  18 W6        30.40F
RACINE         CLOUDY    49  17  28 E7        30.42F
BURLINGTON     FAIR      54  28  36 N5        30.39F
KENOSHA        PTSUNNY   54  25  32 E9        30.40F
FOND DU LAC    FAIR      49  28  44 S5        30.39F
SHEBOYGAN      FAIR      56  20  24 VRB3      30.38F
WEST BEND      CLOUDY    54  23  30 W5        30.39F
JUNEAU         CLOUDY    50  35  55 S6        30.41S
$$

LSZ147-162-212200-
LAKE SUPERIOR

STATION/POSITION TIME  TEMP    WIND        PRES    WAVE
                       AIR SEA DIR/SP/G            HT/PER
                 (UTC) (F)     (DEG/KT/KT) (MB)    (FT/S)
DEVILS ISLAND    2100   48     290/  5/  8 1028.3F
SAXON HARBOR     2030   45     350/  2/  2 1027.4F
$$

LMZ867-665-643>646-212200-
LAKE MICHIGAN

STATION/POSITION TIME  TEMP    WIND        PRES    WAVE
                       AIR SEA DIR/SP/G            HT/PER
                 (UTC) (F)     (DEG/KT/KT) (MB)    (FT/S)
NORTHPORT PIER   2040   47                 1028.1F
KEWAUNEE LAKESHO 2048   41     170/  9/ 11 1028.4F
SHEBOYGAN LAKESH 2000   43     170/ 16/ 16 1030.0F
PORT WASHINGTON  2030   47     180/  4/  6 1030.5F
MILWAUKEE LAKESH 2050   42     190/  2/  2   N/A
KENOSHA   LAKESH 2100   43                 1029.5
$$

TC  - TEMPERATURE IN CELSIUS
VSB - VISIBILITY IN STATUTE MILES
WCI - WIND CHILL INDEX
HX  - HEAT INDEX





USA.gov is the U.S. government's official web portal to all federal, state and local government web resources and services.